RYR50AM LEAL-EYKA

Flight info

Callsign RYR50AM
Flight time N/A
Altitude 34000
Route MITOS N851 RUXET DCT IZA DCT TUKRO DCT ASMOT N851 PTC DCT CDP DCT CHELY N853 LUMAS DCT UNANA DCT STP DCT RAPED DCT PIGOS DCT EKSID DCT NOSTA DCT NOPMU DCT MALUG DCT NAVTI DCT DESEN DCT UVROB N871 SUWGI M857 BOKSU DCT ADIDU
Aircraft B738/M-SDE2E3FGHIRWXY/LB1

Departure

Time 2026-05-01 09:32
Airport Alicante-Elche Miguel Hernández Airport (LEAL)

Arrival

Time N/A
Airport Kaunas International Airport (EYKA)
Time Latitude Longitude Altitude Speed Heading
2026-05-01 09:12 38.28463 -0.55802 100 ft 0 kts 10°
2026-05-01 09:27 38.28468 -0.55801 100 ft 2 kts 13°
2026-05-01 09:27 38.28484 -0.55792 100 ft 2 kts 38°
2026-05-01 09:27 38.28488 -0.55760 101 ft 5 kts 105°
2026-05-01 09:28 38.28451 -0.55745 99 ft 8 kts 185°
2026-05-01 09:28 38.28392 -0.55728 97 ft 9 kts 127°
2026-05-01 09:28 38.28370 -0.55638 95 ft 11 kts 99°
2026-05-01 09:28 38.28355 -0.55533 93 ft 12 kts 99°
2026-05-01 09:29 38.28315 -0.55244 81 ft 19 kts 99°
2026-05-01 09:29 38.28290 -0.55064 72 ft 21 kts 99°
2026-05-01 09:30 38.28233 -0.54659 54 ft 21 kts 100°
2026-05-01 09:30 38.28214 -0.54521 51 ft 14 kts 100°
2026-05-01 09:30 38.28174 -0.54240 41 ft 14 kts 108°
2026-05-01 09:31 38.28099 -0.54190 41 ft 11 kts 185°
2026-05-01 09:31 38.28022 -0.54215 43 ft 11 kts 216°
2026-05-01 09:31 38.28116 -0.55098 73 ft 114 kts 279°
2026-05-01 09:32 38.28294 -0.56364 107 ft 170 kts 279°
2026-05-01 09:32 38.28753 -0.59485 1402 ft 180 kts 280°
2026-05-01 09:32 38.28976 -0.61152 1736 ft 205 kts 279°
2026-05-01 09:33 38.29209 -0.63048 2263 ft 223 kts 279°
2026-05-01 09:33 38.29472 -0.65038 3004 ft 234 kts 279°
2026-05-01 09:33 38.30029 -0.69127 4805 ft 237 kts 279°
2026-05-01 09:34 38.30308 -0.71217 5554 ft 245 kts 280°
2026-05-01 09:34 38.30478 -0.73350 6452 ft 245 kts 263°
2026-05-01 09:34 38.28444 -0.76673 7958 ft 253 kts 212°
2026-05-01 09:35 38.26922 -0.77702 8811 ft 253 kts 197°
2026-05-01 09:35 38.23572 -0.76930 10237 ft 260 kts 138°
2026-05-01 09:35 38.22543 -0.75047 10928 ft 264 kts 110°
2026-05-01 09:36 38.21968 -0.72859 11671 ft 266 kts 103°
2026-05-01 09:36 38.21809 -0.70503 12309 ft 271 kts 82°
2026-05-01 09:36 38.22378 -0.68202 12886 ft 279 kts 65°
2026-05-01 09:36 38.23085 -0.65856 13273 ft 294 kts 78°
2026-05-01 09:37 38.23204 -0.63188 13576 ft 311 kts 93°
2026-05-01 09:37 38.23001 -0.57439 14095 ft 347 kts 91°
2026-05-01 09:37 38.22959 -0.54535 14629 ft 353 kts 90°
2026-05-01 09:38 38.23200 -0.48464 15775 ft 363 kts 76°
2026-05-01 09:38 38.23919 -0.45375 16434 ft 365 kts 72°
2026-05-01 09:38 38.24796 -0.42278 17012 ft 369 kts 66°
2026-05-01 09:39 38.27038 -0.36330 18188 ft 375 kts 64°
2026-05-01 09:39 38.28152 -0.33285 18750 ft 379 kts 65°
2026-05-01 09:39 38.29268 -0.30207 19296 ft 382 kts 65°
2026-05-01 09:40 38.30395 -0.27102 19829 ft 385 kts 65°
2026-05-01 09:40 38.32669 -0.20819 20850 ft 391 kts 65°
2026-05-01 09:40 38.33818 -0.17635 21342 ft 394 kts 65°
2026-05-01 09:41 38.34981 -0.14410 21820 ft 397 kts 65°
2026-05-01 09:41 38.37291 -0.07989 22726 ft 402 kts 65°
2026-05-01 09:41 38.38482 -0.04673 23169 ft 405 kts 65°
2026-05-01 09:42 38.39650 -0.01415 23589 ft 407 kts 65°
2026-05-01 09:42 38.40845 0.01921 24006 ft 410 kts 65°
2026-05-01 09:42 38.43250 0.08642 24803 ft 415 kts 65°
2026-05-01 09:43 38.45665 0.15412 25555 ft 420 kts 65°
2026-05-01 09:43 38.46880 0.18821 25914 ft 422 kts 65°
2026-05-01 09:43 38.48095 0.22235 26263 ft 424 kts 65°
2026-05-01 09:44 38.50571 0.29208 26942 ft 429 kts 65°
2026-05-01 09:44 38.51796 0.32662 27262 ft 431 kts 65°
2026-05-01 09:44 38.53050 0.36204 27582 ft 433 kts 65°
2026-05-01 09:45 38.54282 0.39689 27886 ft 435 kts 65°
2026-05-01 09:45 38.56808 0.46841 28481 ft 439 kts 65°
2026-05-01 09:45 38.58080 0.50451 28769 ft 441 kts 65°
2026-05-01 09:46 38.59335 0.54016 29042 ft 443 kts 65°
2026-05-01 09:46 38.60611 0.57646 29312 ft 445 kts 65°
2026-05-01 09:46 38.61884 0.61271 29567 ft 447 kts 65°
2026-05-01 09:46 38.63160 0.64909 29983 ft 444 kts 65°
2026-05-01 09:47 38.64426 0.68525 30394 ft 442 kts 66°
2026-05-01 09:47 38.65700 0.72165 30722 ft 442 kts 66°
2026-05-01 09:47 38.66961 0.75774 31052 ft 441 kts 66°
2026-05-01 09:47 38.68220 0.79380 31401 ft 440 kts 66°
2026-05-01 09:48 38.69459 0.82937 31738 ft 439 kts 66°
2026-05-01 09:48 38.70726 0.86574 32060 ft 438 kts 66°
2026-05-01 09:48 38.71964 0.90135 32367 ft 438 kts 66°
2026-05-01 09:48 38.73204 0.93704 32665 ft 437 kts 66°
2026-05-01 09:49 38.74444 0.97281 32957 ft 436 kts 66°
2026-05-01 09:49 38.75678 1.00843 33242 ft 436 kts 66°
2026-05-01 09:49 38.76911 1.04408 33520 ft 435 kts 66°
2026-05-01 09:49 38.78145 1.07978 33793 ft 435 kts 66°
2026-05-01 09:50 38.79378 1.11548 33991 ft 436 kts 66°
2026-05-01 09:50 38.80617 1.15143 33999 ft 439 kts 66°
2026-05-01 09:50 38.83066 1.22261 34000 ft 435 kts 66°
2026-05-01 09:51 38.85516 1.29399 34000 ft 434 kts 66°
2026-05-01 09:51 38.87938 1.36471 34000 ft 434 kts 66°
2026-05-01 09:52 38.90375 1.43607 33999 ft 435 kts 66°
2026-05-01 09:52 38.92739 1.50799 33999 ft 434 kts 69°
2026-05-01 09:53 38.94846 1.58116 34000 ft 434 kts 69°
2026-05-01 09:53 38.96981 1.65400 33999 ft 434 kts 69°
2026-05-01 09:54 38.99109 1.72662 34000 ft 434 kts 69°
2026-05-01 09:54 39.01251 1.79985 34000 ft 434 kts 69°
2026-05-01 09:55 39.03384 1.87291 34000 ft 434 kts 69°
2026-05-01 09:55 39.05505 1.94572 34000 ft 434 kts 69°
2026-05-01 09:56 39.07632 2.01892 34000 ft 434 kts 69°
2026-05-01 09:56 39.09747 2.09193 33999 ft 434 kts 69°
2026-05-01 09:57 39.11855 2.16487 34000 ft 434 kts 69°
2026-05-01 09:57 39.13972 2.23829 34000 ft 434 kts 69°
2026-05-01 09:58 39.16073 2.31139 34000 ft 434 kts 69°
2026-05-01 09:58 39.18183 2.38501 34000 ft 434 kts 69°
2026-05-01 09:59 39.20278 2.45832 34000 ft 434 kts 69°
2026-05-01 09:59 39.22366 2.53153 34000 ft 434 kts 69°
2026-05-01 10:00 39.24455 2.60504 34000 ft 434 kts 69°
2026-05-01 10:00 39.26527 2.67818 33999 ft 434 kts 70°
2026-05-01 10:01 39.28598 2.75149 33999 ft 433 kts 70°
2026-05-01 10:01 39.30676 2.82513 34000 ft 433 kts 70°
2026-05-01 10:02 39.32737 2.89841 34000 ft 433 kts 70°
2026-05-01 10:02 39.34808 2.97221 34000 ft 433 kts 70°
2026-05-01 10:03 39.36865 3.04575 34000 ft 433 kts 70°
2026-05-01 10:03 39.38908 3.11899 34000 ft 433 kts 70°
2026-05-01 10:04 39.40981 3.19257 33997 ft 433 kts 66°
2026-05-01 10:04 39.42501 3.22657 34000 ft 432 kts 50°
2026-05-01 10:04 39.44606 3.25476 34005 ft 433 kts 43°
2026-05-01 10:05 39.49393 3.30190 34002 ft 433 kts 27°
2026-05-01 10:05 39.54825 3.33599 33999 ft 434 kts 26°
2026-05-01 10:06 39.60191 3.37137 33999 ft 433 kts 27°
2026-05-01 10:06 39.65593 3.40688 33999 ft 433 kts 26°
2026-05-01 10:07 39.70930 3.44233 33999 ft 433 kts 28°
2026-05-01 10:07 39.76161 3.48234 33999 ft 433 kts 31°
2026-05-01 10:08 39.83926 3.54186 33999 ft 433 kts 30°
2026-05-01 10:09 39.89151 3.58186 33999 ft 433 kts 30°
2026-05-01 10:09 39.94345 3.62163 33999 ft 433 kts 30°
2026-05-01 10:10 39.99527 3.66135 34000 ft 433 kts 31°
2026-05-01 10:10 40.07359 3.72150 34000 ft 433 kts 31°
2026-05-01 10:11 40.12551 3.76145 33999 ft 433 kts 31°
2026-05-01 10:11 40.17743 3.80149 34000 ft 433 kts 31°
2026-05-01 10:12 40.22949 3.84169 33999 ft 433 kts 31°
2026-05-01 10:13 40.30742 3.90202 33999 ft 432 kts 31°
2026-05-01 10:13 40.35917 3.94216 34000 ft 432 kts 31°
2026-05-01 10:14 40.43673 4.00246 34000 ft 432 kts 31°
2026-05-01 10:14 40.48882 4.04305 34000 ft 432 kts 31°
2026-05-01 10:15 40.54051 4.08340 34000 ft 432 kts 31°
2026-05-01 10:15 40.59236 4.12396 34000 ft 432 kts 31°
2026-05-01 10:16 40.64428 4.16464 34000 ft 432 kts 31°
2026-05-01 10:17 40.72207 4.22573 34000 ft 432 kts 31°
2026-05-01 10:17 40.79973 4.28688 33999 ft 432 kts 31°
2026-05-01 10:18 40.87757 4.34835 33999 ft 432 kts 31°
2026-05-01 10:19 40.92923 4.38924 33999 ft 432 kts 31°
2026-05-01 10:19 40.98103 4.43031 33999 ft 432 kts 31°
2026-05-01 10:20 41.05928 4.48995 33999 ft 431 kts 24°
2026-05-01 10:20 41.11671 4.51446 34001 ft 431 kts 10°
2026-05-01 10:21 41.20557 4.53610 34000 ft 432 kts 11°
2026-05-01 10:22 41.29245 4.55778 34000 ft 432 kts 10°
2026-05-01 10:23 41.37739 4.57875 34000 ft 431 kts 10°
2026-05-01 10:23 41.46699 4.60084 33999 ft 432 kts 10°
2026-05-01 10:24 41.58565 4.63012 33999 ft 432 kts 10°
2026-05-01 10:25 41.70370 4.66177 33999 ft 431 kts 19°
2026-05-01 10:26 41.75663 4.69984 34000 ft 431 kts 40°
2026-05-01 10:27 41.84325 4.81274 33999 ft 432 kts 44°
2026-05-01 10:28 41.90781 4.89767 34000 ft 431 kts 44°
2026-05-01 10:28 41.97183 4.98247 34000 ft 431 kts 44°
2026-05-01 10:29 42.03630 5.06830 33999 ft 431 kts 45°
2026-05-01 10:30 42.12180 5.18257 34000 ft 431 kts 45°
2026-05-01 10:31 42.20679 5.29665 34000 ft 431 kts 45°
2026-05-01 10:32 42.27058 5.38258 34000 ft 431 kts 45°
2026-05-01 10:33 42.35566 5.49760 34000 ft 431 kts 45°
2026-05-01 10:34 42.41943 5.58411 33999 ft 431 kts 45°
2026-05-01 10:34 42.46161 5.64148 33999 ft 431 kts 45°
2026-05-01 10:35 42.52485 5.72773 34000 ft 430 kts 45°
2026-05-01 10:35 42.56708 5.78545 34000 ft 430 kts 45°
2026-05-01 10:36 42.63037 5.87218 34000 ft 430 kts 45°
2026-05-01 10:37 42.67242 5.92997 34000 ft 430 kts 45°
2026-05-01 10:37 42.73531 6.01661 33999 ft 430 kts 45°
2026-05-01 10:38 42.77743 6.07478 33999 ft 430 kts 45°
2026-05-01 10:38 42.81955 6.13306 33999 ft 430 kts 45°
2026-05-01 10:39 42.86177 6.19044 33999 ft 430 kts 41°
2026-05-01 10:39 42.90784 6.24266 33999 ft 430 kts 39°
2026-05-01 10:40 42.95336 6.29467 34002 ft 434 kts 40°
2026-05-01 10:40 42.99539 6.34293 34000 ft 444 kts 40°
2026-05-01 10:41 43.04594 6.40108 34000 ft 454 kts 40°
2026-05-01 10:42 43.11939 6.48585 34000 ft 464 kts 40°
2026-05-01 10:42 43.16833 6.54248 33999 ft 463 kts 40°
2026-05-01 10:43 43.21536 6.60201 33998 ft 462 kts 47°
2026-05-01 10:43 43.25436 6.67098 34000 ft 463 kts 54°
2026-05-01 10:44 43.29229 6.74160 33999 ft 463 kts 53°
2026-05-01 10:44 43.33036 6.81269 33999 ft 463 kts 54°
2026-05-01 10:45 43.36798 6.88375 33999 ft 463 kts 54°
2026-05-01 10:45 43.40559 6.95515 33999 ft 463 kts 54°
2026-05-01 10:46 43.44233 7.02518 34000 ft 463 kts 54°
2026-05-01 10:46 43.47970 7.09666 33999 ft 463 kts 54°
2026-05-01 10:47 43.51694 7.16809 34000 ft 463 kts 54°
2026-05-01 10:47 43.55427 7.23989 33999 ft 463 kts 54°
2026-05-01 10:48 43.59128 7.31126 33999 ft 463 kts 54°
2026-05-01 10:48 43.62855 7.38332 33999 ft 463 kts 54°
2026-05-01 10:49 43.66560 7.45514 33999 ft 463 kts 54°
2026-05-01 10:49 43.70282 7.52745 33999 ft 463 kts 54°
2026-05-01 10:50 43.73953 7.59896 33999 ft 463 kts 54°
2026-05-01 10:50 43.77667 7.67148 34000 ft 463 kts 55°
2026-05-01 10:51 43.81553 7.74160 33999 ft 463 kts 48°
2026-05-01 10:51 43.86251 7.80010 34000 ft 463 kts 37°
2026-05-01 10:52 43.91298 7.85413 34000 ft 463 kts 38°
2026-05-01 10:52 43.96034 7.91429 34000 ft 463 kts 48°
2026-05-01 10:53 44.00240 7.98048 34000 ft 463 kts 48°
2026-05-01 10:53 44.04529 8.04658 33999 ft 463 kts 48°
2026-05-01 10:54 44.08778 8.11314 33999 ft 463 kts 48°
2026-05-01 10:54 44.13009 8.17989 34000 ft 463 kts 48°
2026-05-01 10:55 44.17233 8.24680 34000 ft 463 kts 49°
2026-05-01 10:55 44.21449 8.31386 34000 ft 463 kts 49°
2026-05-01 10:56 44.25641 8.38075 34000 ft 463 kts 49°
2026-05-01 10:56 44.29848 8.44808 34000 ft 463 kts 49°
2026-05-01 10:57 44.34053 8.51553 34000 ft 463 kts 49°
2026-05-01 10:57 44.38271 8.58336 34000 ft 463 kts 49°
2026-05-01 10:58 44.42451 8.65076 34000 ft 463 kts 49°
2026-05-01 10:58 44.46643 8.71850 33999 ft 463 kts 49°
2026-05-01 10:59 44.50800 8.78586 33999 ft 463 kts 49°
2026-05-01 10:59 44.54973 8.85362 34000 ft 463 kts 49°
2026-05-01 11:00 44.59107 8.92091 33999 ft 463 kts 49°
2026-05-01 11:00 44.63280 8.98900 33999 ft 463 kts 49°
2026-05-01 11:01 44.67433 9.05692 33999 ft 463 kts 49°
2026-05-01 11:01 44.71572 9.12479 33999 ft 463 kts 49°
2026-05-01 11:02 44.75684 9.19235 33999 ft 463 kts 49°
2026-05-01 11:02 44.79833 9.26071 33999 ft 463 kts 49°
2026-05-01 11:03 44.83943 9.32858 33999 ft 463 kts 49°
2026-05-01 11:03 44.88047 9.39652 33999 ft 463 kts 49°
2026-05-01 11:04 44.92203 9.46548 33999 ft 463 kts 49°
2026-05-01 11:04 44.96289 9.53345 33999 ft 463 kts 49°
2026-05-01 11:05 45.00432 9.60253 33999 ft 463 kts 49°
2026-05-01 11:05 45.04525 9.67094 34000 ft 463 kts 50°
2026-05-01 11:06 45.08604 9.73926 34000 ft 463 kts 50°
2026-05-01 11:06 45.12614 9.80661 33999 ft 463 kts 50°